This is the latest recevied weather packets stored in our database for station/object KE5VT. If no packets are shown the sender has not sent any weather packets the latest 10 day(s).
| Time | Temp. | Humidity | Pressure | Rain* | Wind** | Luminosity | Snow |
|---|---|---|---|---|---|---|---|
| 1787411833 | 24.44° C | 88% | 1013.1 hPa | 0 mm | - | 104 W/m² | - |
| 1787411528 | 24.44° C | 88% | 1013 hPa | 0 mm | - | 120 W/m² | - |
| 1787411223 | 24.44° C | 89% | 1013.2 hPa | 0 mm | - | 114 W/m² | - |
| 1787410919 | 24.44° C | 89% | 1013 hPa | 0 mm | - | 112 W/m² | - |
| 1787410614 | 24.44° C | 89% | 1013.2 hPa | 0 mm | - | 149 W/m² | - |
| 1787410309 | 23.89° C | 90% | 1013.2 hPa | 0 mm | - | 165 W/m² | - |
| 1787410005 | 23.89° C | 91% | 1013 hPa | 0 mm | - | 133 W/m² | - |
| 1787409701 | 23.89° C | 90% | 1013.1 hPa | 0 mm | - | 104 W/m² | - |
| 1787409397 | 23.89° C | 92% | 1013.1 hPa | 0 mm | - | 71 W/m² | - |
| 1787409092 | 23.89° C | 92% | 1013.2 hPa | 0 mm | - | 80 W/m² | - |
| 1787408788 | 23.89° C | 92% | 1013 hPa | 0 mm | - | 145 W/m² | - |
| 1787408483 | 23.33° C | 93% | 1013.3 hPa | 0 mm | - | 120 W/m² | - |
| 1787408179 | 23.33° C | 93% | 1013.2 hPa | 0 mm | - | 100 W/m² | - |
| 1787407873 | 23.33° C | 95% | 1013.2 hPa | 0 mm | - | 112 W/m² | - |
| 1787407569 | 22.78° C | 94% | 1013.2 hPa | 0 mm | - | 81 W/m² | - |
| 1787407264 | 23.33° C | 94% | 1013.2 hPa | 0 mm | - | 65 W/m² | - |
| 1787406960 | 22.78° C | 95% | 1013.2 hPa | 0 mm | - | 76 W/m² | - |
| 1787406655 | 22.78° C | 96% | 1013.1 hPa | 0 mm | - | 68 W/m² | - |
| 1787406351 | 22.78° C | 96% | 1013 hPa | 0 mm | - | 67 W/m² | - |
| 1787406047 | 22.78° C | 96% | 1013.1 hPa | 0 mm | - | 53 W/m² | - |
| 1787405743 | 22.78° C | 97% | 1013 hPa | 0 mm | - | 40 W/m² | - |
| 1787405439 | 22.78° C | 97% | 1012.9 hPa | 0 mm | - | 32 W/m² | - |
| 1787405134 | 22.78° C | 97% | 1013.1 hPa | 0 mm | - | 22 W/m² | - |
| 1787404830 | 22.22° C | 97% | 1012.9 hPa | 0 mm | - | 33 W/m² | - |
| 1787404526 | 22.78° C | 97% | 1012.8 hPa | 0 mm | - | 37 W/m² | - |
* Rain latest hour (hover to see other rain measurements)
** Current wind speed in m/s (hover to see current wind gust speed)